This is the latest recevied weather packets stored in our database for station/object KF7SOJ. If no packets are shown the sender has not sent any weather packets the latest 10 day(s).
| Time | Temp. | Humidity | Pressure | Rain* | Wind** | Luminosity | Snow |
|---|---|---|---|---|---|---|---|
| 1788396275 | 30° C | 26% | 922.7 hPa | 0 mm | - | 132 W/m² | - |
| 1788395971 | 30° C | 26% | 922.6 hPa | 0 mm | - | 132 W/m² | - |
| 1788395670 | 30° C | 26% | 922.7 hPa | 0 mm | - | 142 W/m² | - |
| 1788395366 | 28.89° C | 31% | 922.6 hPa | 0 mm | - | 133 W/m² | - |
| 1788395061 | 28.89° C | 31% | 922.6 hPa | 0 mm | - | 133 W/m² | - |
| 1788394761 | 28.89° C | 31% | 922.5 hPa | 0 mm | - | 133 W/m² | - |
| 1788394461 | 28.89° C | 26% | 922.7 hPa | 0 mm | - | 86 W/m² | - |
| 1788394160 | 28.89° C | 26% | 922.5 hPa | 0 mm | - | 86 W/m² | - |
| 1788393855 | 28.89° C | 28% | 922.5 hPa | 0 mm | - | 93 W/m² | - |
| 1788393554 | 30° C | 25% | 922.4 hPa | 0 mm | - | 135 W/m² | - |
| 1788393249 | 30° C | 25% | 922.5 hPa | 0 mm | - | 135 W/m² | - |
| 1788392949 | 30° C | 25% | 922.4 hPa | 0 mm | - | 135 W/m² | - |
| 1788392644 | 30° C | 25% | 922.4 hPa | 0 mm | - | 135 W/m² | - |
| 1788392343 | 30° C | 25% | 922.3 hPa | 0 mm | - | 135 W/m² | - |
| 1788392037 | 30° C | 25% | 922.4 hPa | 0 mm | - | 124 W/m² | - |
| 1788391736 | 30° C | 25% | 922.3 hPa | 0 mm | - | 209 W/m² | - |
| 1788391431 | 30° C | 25% | 922.2 hPa | 0 mm | - | 209 W/m² | - |
| 1788391131 | 30° C | 25% | 922.2 hPa | 0 mm | - | 209 W/m² | - |
| 1788390826 | 30.56° C | 22% | 922 hPa | 0 mm | - | 256 W/m² | - |
| 1788390520 | 30.56° C | 22% | 922.1 hPa | 0 mm | - | 256 W/m² | - |
| 1788390220 | 30.56° C | 22% | 922.4 hPa | 0 mm | - | 256 W/m² | - |
| 1788389914 | 30.56° C | 22% | 922.1 hPa | 0 mm | - | 256 W/m² | - |
| 1788389609 | 30.56° C | 22% | 922.2 hPa | 0 mm | - | 256 W/m² | - |
| 1788389307 | 30.56° C | 22% | 922.3 hPa | 0 mm | - | 256 W/m² | - |
| 1788389003 | 30.56° C | 21% | 922.3 hPa | 0 mm | - | 219 W/m² | - |
* Rain latest hour (hover to see other rain measurements)
** Current wind speed in m/s (hover to see current wind gust speed)